Flag for Netherlands Weather past 2 weeks in Leiden, Netherlands

Now
61 °F

Clear.


Feels Like: 61 °F
Forecast: 55 / 69 °F
Wind: 5 mph from Southeast

Location: Rotterdam Zestienhoven Airport

Current Time: Jul 31, 2015 at 12:30:50 PM

Latest Report: Jul 31, 2015 at 11:55 AM


Visibility: N/A

Pressure: 30.12 "Hg

Humidity: 59%

Dew point: 46 °F

Location of LeidenLocation

Historic Weather in Leiden — Graph

°F

Leiden temperature yesterday

Maximum temperature yesterday: 63 °F (at 9:55 AM)
Minimum temperature yesterday: 48 °F (at 3:55 AM)
Average temperature yesterday: 57 °F

Past Weeks' High & Low Weather Summary

 TemperatureHumidityPressure
High77 °F (Jul 17, 1:25 PM)100% (Jul 19, 7:55 AM)30.15 "Hg (Jul 19, 7:55 AM)
Low45 °F (Jul 31, 4:55 AM)40% (Jul 23, 2:55 PM)29.42 "Hg (Jul 25, 6:25 AM)
Average63 °F76%29.85 "Hg
* Reported Jul 16 11:25 AM — Jul 31 11:25 AM, Leiden, Weather by CustomWeather, © 2015

Note: Actual official high and low records may vary slightly from our data, if they occured in-between our weather recording intervals... More about our weather records

Advertising

Leiden weather history for previous 24 hours

 ConditionsComfort  
Time TempWeatherWind HumidityBarometerVisibility
11:25 AM
Fri, Jul 31
61 °FPartly sunny.2 mph59%30.12 "HgN/A
10:55 AM61 °FPartly sunny.2 mph59%30.15 "HgN/A
10:25 AM61 °FScattered clouds.3 mph59%30.15 "HgN/A
9:55 AM61 °FClear.3 mph59%30.15 "HgN/A
9:25 AM59 °FCool.2 mph63%30.15 "HgN/A
8:55 AM59 °FCool.2 mph68%30.12 "HgN/A
8:25 AM57 °FClear.No wind77%30.12 "HgN/A
7:55 AM52 °FClear.1 mph94%30.12 "HgN/A
7:25 AM48 °FClear.No wind100%30.12 "HgN/A
6:55 AM46 °FCool.1 mph100%30.12 "HgN/A
6:25 AM46 °FCool.1 mph100%30.12 "HgN/A
5:55 AM45 °FQuite cool.1 mph100%30.12 "HgN/A
5:25 AM46 °FCool.1 mph100%30.12 "HgN/A
4:55 AM45 °FQuite cool.1 mph100%30.12 "Hg6 mi
4:25 AM46 °FCool.No wind100%30.12 "HgN/A
3:55 AM48 °FCool.3 mph94%30.12 "HgN/A
3:25 AM46 °FCool.2 mph100%30.12 "HgN/A
2:55 AM48 °FCool.2 mph94%30.12 "HgN/A
2:25 AM46 °FCool.3 mph100%30.12 "HgN/A
1:55 AM48 °FClear.2 mph100%30.12 "HgN/A
1:25 AM48 °FCool.3 mph94%30.12 "HgN/A
12:55 AM48 °FClear.2 mph100%30.12 "HgN/A
12:25 AM48 °FClear.3 mph100%30.12 "HgN/A
11:55 PM
Thu, Jul 30
50 °FCool.3 mph94%30.12 "HgN/A
11:25 PM52 °FPassing clouds.2 mph88%30.12 "HgN/A
10:55 PM52 °FPassing clouds.2 mph88%30.09 "HgN/A
10:25 PM52 °FBroken clouds.2 mph82%30.09 "HgN/A
9:55 PM54 °FScattered clouds.3 mph82%30.09 "HgN/A
9:25 PM55 °FPassing clouds.6 mph77%30.09 "HgN/A
8:55 PM57 °FScattered clouds.5 mph72%30.09 "HgN/A
8:25 PM59 °FClear.8 mph68%30.07 "HgN/A
7:55 PM61 °FPassing clouds.8 mph63%30.07 "HgN/A
7:25 PM59 °FClear.9 mph63%30.07 "HgN/A
6:55 PM61 °FPassing clouds.9 mph63%30.07 "HgN/A
6:25 PM61 °FCool.10 mph63%30.07 "HgN/A
5:55 PM63 °FMild.12 mph59%30.04 "HgN/A
5:25 PM63 °FBroken clouds.10 mph64%30.04 "HgN/A
4:55 PM63 °FClear.9 mph68%30.04 "HgN/A
4:25 PM61 °FPassing clouds.10 mph68%30.04 "HgN/A
3:55 PM59 °FBroken clouds.9 mph72%30.04 "HgN/A
3:25 PM57 °FCloudy.7 mph94%30.04 "HgN/A
2:55 PM55 °FSprinkles. Cloudy.8 mph94%30.01 "HgN/A
2:25 PM59 °FDrizzle. More clouds than sun.8 mph82%30.01 "HgN/A
1:55 PM61 °FLight rain. Scattered clouds.6 mph77%30.01 "HgN/A
1:25 PM57 °FLight rain. More clouds than sun.9 mph82%30.01 "HgN/A
12:55 PM61 °FBroken clouds.8 mph72%29.98 "HgN/A
12:25 PM59 °FScattered clouds.9 mph82%29.98 "HgN/A
Weather by CustomWeather, © 2015

See weather overviewHow to use our weather pages